Flag for U.S.A. Weather past 2 weeks in Charleston, West Virginia, U.S.A.

Now
87 °F

Scattered clouds.


Feels Like: 91 °F
Forecast: 72 / 92 °F
Wind: 9 mph from South

Location: Yeager Airport

Current Time: Aug 30, 2014 at 12:50:54 PM

Latest Report: Aug 30, 2014 at 11:54 AM


Visibility: 10 mi

Pressure: 30.09 "Hg

Humidity: 53%

Dew point: 68 °F

Location of CharlestonLocation

Historic Weather in Charleston — Graph

°F

Charleston temperature yesterday

Maximum temperature yesterday: 88 °F (at 4:54 PM)
Minimum temperature yesterday: 61 °F (at 6:54 AM)
Average temperature yesterday: 73 °F

Past Weeks' High & Low Weather Summary

 TemperatureHumidityPressure
High88 °F (Aug 27, 4:54 PM)100% (Aug 16, 12:54 AM)30.17 "Hg (Aug 16, 12:54 AM)
Low54 °F (Aug 16, 4:54 AM)34% (Aug 16, 2:54 PM)29.77 "Hg (Aug 18, 4:54 PM)
Average73 °F84%30.00 "Hg
* Reported Aug 15 11:54 AM — Aug 30 11:54 AM, Charleston, Weather by CustomWeather, © 2014

Note: Actual official high and low records may vary slightly from our data, if they occured in-between our weather recording intervals... More about our weather records

Advertising

Charleston weather history for previous 24 hours

 ConditionsComfort  
Time TempWeatherWind HumidityBarometerVisibility
11:54 AM
Aug 30
87 °FScattered clouds.9 mph53%30.09 "Hg10 mi
10:54 AM84 °FScattered clouds.7 mph59%30.11 "Hg10 mi
9:54 AM81 °FScattered clouds.6 mph67%30.11 "Hg10 mi
8:54 AM76 °FPartly sunny.3 mph82%30.11 "Hg10 mi
7:54 AM71 °FBroken clouds.No wind96%30.11 "Hg10 mi
6:54 AM70 °FPassing clouds.No wind97%30.10 "Hg10 mi
5:54 AM70 °FPassing clouds.No wind100%30.08 "Hg10 mi
4:54 AM70 °FPassing clouds.No wind100%30.08 "Hg10 mi
3:54 AM71 °FPassing clouds.No wind96%30.07 "Hg10 mi
2:54 AM70 °FPassing clouds.No wind100%30.07 "Hg10 mi
1:54 AM71 °FPassing clouds.No wind96%30.08 "Hg10 mi
1:04 AM71 °FFog.No wind100%30.11 "Hg6 mi
12:54 AM71 °FClear.No wind100%30.07 "Hg7 mi
11:54 PM
Aug 29
72 °FPassing clouds.No wind97%30.06 "Hg7 mi
10:54 PM73 °FPassing clouds.No wind97%30.06 "Hg8 mi
9:54 PM74 °FPassing clouds.5 mph94%30.06 "Hg10 mi
8:54 PM76 °FPassing clouds.No wind88%30.03 "Hg10 mi
7:54 PM81 °FPassing clouds.No wind74%30.02 "Hg10 mi
6:54 PM86 °FPassing clouds.5 mph57%30.01 "Hg10 mi
5:54 PM87 °FScattered clouds.5 mph53%30.02 "Hg10 mi
4:54 PM88 °FScattered clouds.No wind48%30.02 "Hg10 mi
2:54 PM87 °FScattered clouds.3 mph51%30.05 "Hg10 mi
1:54 PM85 °FScattered clouds.No wind55%30.07 "Hg10 mi
12:54 PM81 °FScattered clouds.No wind60%30.08 "Hg10 mi
Weather by CustomWeather, © 2014

See weather overviewHow to use our weather pages